Location: Pardubice
(50.0618°N, 15.7556°E)
Time: 15:09:10
(UTC+02:00)

ISS - Pass Details

Date: 01 June 2018
Orbit: 403 x 409 km, 51.6° (Epoch: 25 September)

Event Time Altitude Azimuth Distance (km) Brightness Sun altitude
Rises 22:07:27 0° 286° (WNW) 2,330 1.0 -8.9°
Reaches altitude 10° 22:09:32 10° 285° (WNW) 1,466 -0.1 -9.1°
Maximum altitude 22:12:49 76° 200° (SSW) 422 -3.9 -9.4°
Enters shadow 22:15:49 12° 115° (ESE) 1,354 -1.7 -9.7°
